Regional Weather Roundup
Issued by NWS Green Bay, WI

Home | Current Version | Previous Version | Text Only | Print | Product List | Glossary On
Versions: 1 2 3 4 5 6 7 8 9 10 11 12 13 14 15 16 17 18 19 20 21 22 23 24 25 26 27 28 29 30 31 32 33 34 35 36 37 38 39 40 41 42 43 44 45 46 47 48 49 50
000
ASUS43 KGRB 030800
RWRGRB

NORTH-CENTRAL AND NORTHEAST WISCONSIN REGIONAL WEATHER ROUNDUP
NATIONAL WEATHER SERVICE GREEN BAY WI
300 AM CDT THU SEP 03 2015

WIZ005-009-010>012-018-019-030900-
NORTH CENTRAL WISCONSIN

CITY           SKY/WX    TMP DP  RH WIND       PRES   REMARKS
IRONWOOD       CLOUDY    57  57 100 CALM      29.95S VSB 1/4
MANITOWISH WTR NOT AVBL
ARBOR VITAE    NOT AVBL
EAGLE RIVER    NOT AVBL
LAND O LAKES   NOT AVBL
RHINELANDER    CLOUDY    65  63  93 CALM      29.97S
PHILLIPS       CLOUDY    63  63 100 E3        29.96S FOG
ANTIGO         NOT AVBL
TOMAHAWK       NOT AVBL
MERRILL        NOT AVBL
$$

WIZ013-073-030900-
NORTHEAST WISCONSIN

CITY           SKY/WX    TMP DP  RH WIND       PRES   REMARKS
IRON MOUNTAIN  LGT RAIN  65  63  93 N6        29.92S
MARINETTE      CLOUDY    66  63  88 E5        29.87F
$$

WIZ017-030-035>037-045-030900-
CENTRAL WISCONSIN

CITY           SKY/WX    TMP DP  RH WIND       PRES   REMARKS
MEDFORD        NOT AVBL
WAUSAU         MOCLDY    68  66  93 N3        29.92S
MOSINEE        NOT AVBL
MARSHFIELD     CLOUDY    70  65  84 NE5       29.94R
WISC RAPIDS    CLOUDY    71  68  90 NE5       29.93S
STEVENS POINT  NOT AVBL
WAUPACA        NOT AVBL
SHAWANO        NOT AVBL
CLINTONVILLE   CLOUDY    68  68 100 NW5       29.89F
WAUTOMA        NOT AVBL
$$

WIZ038-039-048-051-030900-
FOX VALLEY

CITY           SKY/WX    TMP DP  RH WIND       PRES   REMARKS
NWS GREEN BAY  LGT RAIN  69  68  96 SW5       29.88F FOG
APPLETON       NOT AVBL
OSHKOSH        MOCLDY    73  68  84 VRB3      29.90R
FOND DU LAC    MOCLDY    73  69  87 SW7       29.90F
$$

WIZ022-050-052-030900-
EAST CENTRAL WISCONSIN

CITY           SKY/WX    TMP DP  RH WIND       PRES   REMARKS
EPHRAIM        CLOUDY    66  66  99 SE12G20   29.89S FOG
STURGEON BAY   CLOUDY    66  63  88 E7        29.90F
MANITOWOC      NOT AVBL
SHEBOYGAN      PTCLDY    71  69  93 S5        29.89F FOG
$$

LMZ563-521-522-541>543-030900-
LAKESHORE

STATION/POSITION TIME  TEMP    WIND        PRES    VSBY  WAVE
                       AIR SEA DIR/SP/G                  HT/PER
                 (UTC) (F)     (DEG/KT/KT) (MB)    (MI)  (FT/S)
SHEBOYGAN LKSHOR 0700   71     230/  7/  7 1012.7F
KEWAUNEE LKSHORE 0700   55      60/  3/  5 1011.2F
ALGOMA MARINA    0714             CALM       N/A
NORTHPORT PIER   0700   67      70/ 12/ 13 1013.2F
N MID LAKE BUOY  0650   67 66  360/ 14/ 16 1013.4R         1
S GREEN BAY BUOY 0700   66 66   80/  6/  6 1013.5F
SISTER BAY LKSHO 0656   67     130/  3/  6   N/A
CHAMBERS ISLAND  0700   68      90/  7/  9 1012.5F
MENOMINEE LKSHOR 0700   66      60/  6/ 11 1010.9F
$$


USA.gov is the U.S. government's official web portal to all federal, state and local government web resources and services.